UAE9657 OMDW-FWKI

Flight info

Callsign UAE9657
Flight time N/A
Altitude 32000
Route ANVIX R401 GIDIS G783 UKRAG/N0494F310 L710 KUKDI/N0493F320 B400 VEDET UL437 MOGDU/N0492F340 UL437 DVL
Aircraft B77L/H-SDE1E2E3FGHIJ2J3J4J5M1RWXY/LB1D1

Departure

Time 2026-04-16 19:49
Airport Al Maktoum International Airport (OMDW)

Arrival

Time N/A
Airport Kamuzu International Airport (FWKI)
Time Latitude Longitude Altitude Speed Heading
2026-04-16 19:06 24.89357 55.14390 165 ft 0 kts 303°
2026-04-16 19:25 24.89351 55.14400 165 ft 3 kts 303°
2026-04-16 19:25 24.89340 55.14419 165 ft 3 kts 303°
2026-04-16 19:25 24.89329 55.14437 165 ft 3 kts 303°
2026-04-16 19:26 24.89318 55.14456 165 ft 3 kts 309°
2026-04-16 19:26 24.89305 55.14471 165 ft 3 kts 337°
2026-04-16 19:26 24.89292 55.14473 166 ft 2 kts 30°
2026-04-16 19:26 24.89281 55.14466 166 ft 3 kts 31°
2026-04-16 19:27 24.89265 55.14455 166 ft 2 kts 31°
2026-04-16 19:27 24.89263 55.14454 166 ft 3 kts 31°
2026-04-16 19:30 24.89266 55.14456 166 ft 2 kts 32°
2026-04-16 19:30 24.89306 55.14484 165 ft 11 kts 31°
2026-04-16 19:30 24.89400 55.14547 165 ft 19 kts 31°
2026-04-16 19:30 24.89526 55.14631 164 ft 23 kts 31°
2026-04-16 19:31 24.89663 55.14724 164 ft 23 kts 31°
2026-04-16 19:31 24.89802 55.14817 163 ft 23 kts 31°
2026-04-16 19:31 24.89941 55.14909 163 ft 23 kts 36°
2026-04-16 19:31 24.89933 55.15020 163 ft 16 kts 123°
2026-04-16 19:32 24.89870 55.15131 163 ft 18 kts 121°
2026-04-16 19:32 24.89801 55.15257 163 ft 20 kts 121°
2026-04-16 19:32 24.89723 55.15397 164 ft 22 kts 121°
2026-04-16 19:32 24.89641 55.15545 163 ft 24 kts 121°
2026-04-16 19:33 24.89553 55.15703 163 ft 24 kts 121°
2026-04-16 19:33 24.89465 55.15861 163 ft 24 kts 121°
2026-04-16 19:33 24.89377 55.16020 163 ft 24 kts 121°
2026-04-16 19:33 24.89289 55.16178 163 ft 24 kts 121°
2026-04-16 19:34 24.89202 55.16337 163 ft 24 kts 121°
2026-04-16 19:34 24.89114 55.16495 163 ft 24 kts 121°
2026-04-16 19:34 24.89026 55.16654 163 ft 24 kts 121°
2026-04-16 19:34 24.88938 55.16812 163 ft 24 kts 121°
2026-04-16 19:35 24.88851 55.16971 163 ft 24 kts 121°
2026-04-16 19:35 24.88763 55.17129 163 ft 24 kts 122°
2026-04-16 19:35 24.88675 55.17287 163 ft 24 kts 121°
2026-04-16 19:35 24.88652 55.17441 162 ft 19 kts 46°
2026-04-16 19:36 24.88731 55.17501 162 ft 0 kts 31°
2026-04-16 19:47 24.88739 55.17506 162 ft 3 kts 31°
2026-04-16 19:47 24.88767 55.17523 162 ft 6 kts 28°
2026-04-16 19:47 24.88813 55.17551 162 ft 9 kts 28°
2026-04-16 19:48 24.88854 55.17556 166 ft 5 kts 322°
2026-04-16 19:48 24.88888 55.17505 163 ft 17 kts 304°
2026-04-16 19:48 24.89042 55.17226 163 ft 78 kts 301°
2026-04-16 19:48 24.89458 55.16476 162 ft 149 kts 301°
2026-04-16 19:49 24.90106 55.15317 296 ft 195 kts 301°
2026-04-16 19:49 24.90829 55.14029 822 ft 203 kts 300°
2026-04-16 19:49 24.91566 55.12683 1492 ft 205 kts 300°
2026-04-16 19:49 24.92312 55.11322 2239 ft 204 kts 301°
2026-04-16 19:50 24.93044 55.09995 2886 ft 207 kts 301°
2026-04-16 19:50 24.93797 55.08633 3497 ft 211 kts 301°
2026-04-16 19:50 24.94575 55.07227 3954 ft 218 kts 301°
2026-04-16 19:50 24.95325 55.05766 4480 ft 219 kts 290°
2026-04-16 19:51 24.95447 55.04094 4891 ft 225 kts 258°
2026-04-16 19:51 24.94772 55.02523 5387 ft 232 kts 236°
2026-04-16 19:51 24.93549 55.01333 5853 ft 239 kts 217°
2026-04-16 19:51 24.92112 55.00382 6382 ft 241 kts 209°
2026-04-16 19:52 24.90460 54.99985 6775 ft 252 kts 178°
2026-04-16 19:52 24.88780 55.00597 7022 ft 262 kts 147°
2026-04-16 19:52 24.87573 55.02087 7032 ft 263 kts 122°
2026-04-16 19:52 24.86641 55.03834 7021 ft 265 kts 118°
2026-04-16 19:53 24.85918 55.05760 7169 ft 279 kts 109°
2026-04-16 19:53 24.85303 55.07825 7538 ft 289 kts 108°
2026-04-16 19:53 24.84695 55.09970 7943 ft 298 kts 108°
2026-04-16 19:53 24.84075 55.12165 8502 ft 302 kts 108°
2026-04-16 19:54 24.83446 55.14376 9142 ft 303 kts 108°
2026-04-16 19:54 24.82810 55.16587 9800 ft 304 kts 108°
2026-04-16 19:54 24.82165 55.18813 10311 ft 308 kts 109°
2026-04-16 19:54 24.81491 55.21121 10501 ft 327 kts 109°
2026-04-16 19:55 24.80771 55.23574 10675 ft 347 kts 109°
2026-04-16 19:55 24.80006 55.26172 10829 ft 366 kts 109°
2026-04-16 19:55 24.79200 55.28903 11038 ft 384 kts 108°
2026-04-16 19:55 24.78363 55.31736 11486 ft 393 kts 108°
2026-04-16 19:56 24.77511 55.34620 12072 ft 399 kts 108°
2026-04-16 19:56 24.76649 55.37534 12773 ft 401 kts 108°
2026-04-16 19:56 24.75782 55.40459 13476 ft 404 kts 108°
2026-04-16 19:56 24.74906 55.43412 14096 ft 408 kts 109°
2026-04-16 19:57 24.74023 55.46387 14651 ft 412 kts 109°
2026-04-16 19:57 24.73125 55.49407 15001 ft 420 kts 109°
2026-04-16 19:57 24.72215 55.52468 14942 ft 420 kts 109°
2026-04-16 19:57 24.71304 55.55528 15140 ft 422 kts 109°
2026-04-16 19:58 24.70389 55.58598 15779 ft 423 kts 109°
2026-04-16 19:58 24.69471 55.61679 16414 ft 425 kts 109°
2026-04-16 19:58 24.68544 55.64786 16977 ft 430 kts 109°
2026-04-16 19:58 24.67607 55.67924 17462 ft 435 kts 109°
2026-04-16 19:59 24.66658 55.71100 17988 ft 440 kts 109°
2026-04-16 19:59 24.65698 55.74310 18469 ft 444 kts 109°
2026-04-16 19:59 24.64725 55.77531 18969 ft 443 kts 111°
2026-04-16 20:00 24.61023 55.82785 19671 ft 443 kts 150°
2026-04-16 20:00 24.58243 55.84187 20215 ft 438 kts 166°
2026-04-16 20:00 24.55252 55.84706 20732 ft 435 kts 182°
2026-04-16 20:00 24.52263 55.84306 21216 ft 433 kts 197°
2026-04-16 20:01 24.49470 55.83109 21675 ft 432 kts 212°
2026-04-16 20:01 24.47092 55.81129 22085 ft 430 kts 224°
2026-04-16 20:01 24.44882 55.78894 22449 ft 434 kts 224°
2026-04-16 20:01 24.42647 55.76655 22973 ft 435 kts 224°
2026-04-16 20:02 24.40386 55.74449 23552 ft 435 kts 224°
2026-04-16 20:02 24.38104 55.72261 23961 ft 438 kts 223°
2026-04-16 20:02 24.35801 55.70058 24314 ft 441 kts 223°
2026-04-16 20:02 24.33485 55.67825 24658 ft 445 kts 224°
2026-04-16 20:03 24.31156 55.65574 25035 ft 448 kts 224°
2026-04-16 20:03 24.28782 55.63346 25424 ft 451 kts 220°
2026-04-16 20:03 24.26141 55.61442 25754 ft 458 kts 212°
2026-04-16 20:03 24.23259 55.59907 26098 ft 464 kts 206°
2026-04-16 20:04 24.20192 55.58747 26456 ft 469 kts 198°
2026-04-16 20:04 24.17026 55.57850 26826 ft 472 kts 197°
2026-04-16 20:04 24.13831 55.56955 27175 ft 475 kts 198°
2026-04-16 20:04 24.10625 55.56040 27531 ft 477 kts 198°
2026-04-16 20:05 24.07410 55.55100 27887 ft 480 kts 198°
2026-04-16 20:05 24.04182 55.54145 28231 ft 482 kts 198°
2026-04-16 20:05 24.00979 55.53195 28556 ft 484 kts 198°
2026-04-16 20:05 23.97719 55.52226 28885 ft 487 kts 198°
2026-04-16 20:06 23.94456 55.51255 29320 ft 486 kts 198°
2026-04-16 20:06 23.91201 55.50286 29770 ft 485 kts 198°
2026-04-16 20:06 23.87949 55.49318 30197 ft 484 kts 198°
2026-04-16 20:06 23.84708 55.48355 30621 ft 481 kts 198°
2026-04-16 20:07 23.81489 55.47398 31064 ft 478 kts 198°
2026-04-16 20:07 23.78287 55.46443 31501 ft 476 kts 198°
2026-04-16 20:07 23.75103 55.45494 31889 ft 474 kts 198°
2026-04-16 20:07 23.71912 55.44542 31934 ft 477 kts 198°
2026-04-16 20:08 23.65509 55.42635 31931 ft 476 kts 198°
2026-04-16 20:08 23.59139 55.40740 31938 ft 474 kts 198°
2026-04-16 20:09 23.52674 55.39345 31953 ft 478 kts 186°
2026-04-16 20:09 23.46014 55.39934 31940 ft 486 kts 169°
2026-04-16 20:10 23.39479 55.41960 31940 ft 489 kts 167°
2026-04-16 20:10 23.32933 55.44078 31947 ft 492 kts 167°
2026-04-16 20:11 23.26356 55.46181 31950 ft 494 kts 167°
2026-04-16 20:11 23.19749 55.48270 31946 ft 495 kts 167°
2026-04-16 20:12 23.13125 55.50359 31939 ft 496 kts 167°
2026-04-16 20:12 23.06490 55.52452 31949 ft 497 kts 167°
2026-04-16 20:13 22.99858 55.54523 31943 ft 495 kts 168°
2026-04-16 20:13 22.93238 55.56538 31926 ft 493 kts 168°
2026-04-16 20:14 22.86638 55.58544 31931 ft 492 kts 168°
2026-04-16 20:14 22.80051 55.60552 31938 ft 492 kts 168°
2026-04-16 20:15 22.73466 55.62560 31945 ft 492 kts 168°
2026-04-16 20:15 22.66873 55.64568 31930 ft 493 kts 168°
2026-04-16 20:16 22.60266 55.66580 31939 ft 494 kts 168°
2026-04-16 20:16 22.54760 55.68267 31940 ft 495 kts 167°
2026-04-16 20:17 22.46998 55.70648 31936 ft 497 kts 167°
2026-04-16 20:17 22.41466 55.72342 31922 ft 497 kts 168°
2026-04-16 20:18 22.34803 55.74380 31942 ft 498 kts 168°
2026-04-16 20:18 22.28128 55.76413 31938 ft 498 kts 168°
2026-04-16 20:19 22.21339 55.77675 31942 ft 493 kts 179°
2026-04-16 20:19 22.14507 55.78288 31934 ft 493 kts 179°
2026-04-16 20:20 22.07669 55.78936 31941 ft 493 kts 178°
2026-04-16 20:20 22.00847 55.79618 31920 ft 492 kts 178°
2026-04-16 20:21 21.94048 55.80306 31933 ft 490 kts 178°
2026-04-16 20:21 21.87263 55.80989 31924 ft 489 kts 178°
2026-04-16 20:22 21.80529 55.81664 31929 ft 489 kts 178°
2026-04-16 20:22 21.73703 55.82349 31927 ft 490 kts 178°
2026-04-16 20:23 21.66914 55.83025 31928 ft 490 kts 178°
2026-04-16 20:23 21.60155 55.83685 31918 ft 491 kts 178°
2026-04-16 20:24 21.53348 55.84348 31926 ft 492 kts 178°
2026-04-16 20:24 21.46531 55.85014 31922 ft 492 kts 178°
2026-04-16 20:25 21.39707 55.85680 31925 ft 492 kts 178°
2026-04-16 20:25 21.32882 55.86346 31922 ft 493 kts 178°
2026-04-16 20:26 21.26056 55.87011 31922 ft 493 kts 178°
2026-04-16 20:26 21.19228 55.87669 31921 ft 492 kts 178°
2026-04-16 20:27 21.12408 55.88323 31905 ft 492 kts 178°
2026-04-16 20:27 21.05589 55.88978 31915 ft 492 kts 178°
2026-04-16 20:28 20.98774 55.89632 31922 ft 492 kts 178°
2026-04-16 20:28 20.91957 55.90286 31919 ft 492 kts 178°
2026-04-16 20:29 20.85140 55.90940 31910 ft 492 kts 178°
2026-04-16 20:29 20.78316 55.91609 31913 ft 493 kts 178°
2026-04-16 20:30 20.71486 55.92283 31920 ft 493 kts 178°
2026-04-16 20:30 20.64653 55.92955 31919 ft 493 kts 178°
2026-04-16 20:31 20.57810 55.93626 31901 ft 494 kts 178°
2026-04-16 20:31 20.50966 55.94296 31909 ft 494 kts 178°
2026-04-16 20:32 20.44121 55.94966 31915 ft 494 kts 178°
2026-04-16 20:32 20.37268 55.95636 31914 ft 495 kts 178°
2026-04-16 20:33 20.30414 55.96305 31897 ft 495 kts 178°
2026-04-16 20:33 20.23556 55.96960 31908 ft 495 kts 178°
2026-04-16 20:34 20.16742 55.97606 31912 ft 495 kts 178°
2026-04-16 20:34 20.09878 55.98259 31916 ft 495 kts 178°
2026-04-16 20:35 20.03013 55.98591 31903 ft 493 kts 182°
2026-04-16 20:35 19.96153 55.98721 31908 ft 493 kts 182°
2026-04-16 20:36 19.89283 55.98864 31913 ft 494 kts 182°
2026-04-16 20:36 19.82408 55.99027 31913 ft 494 kts 182°
2026-04-16 20:37 19.75530 55.99196 31906 ft 494 kts 182°
2026-04-16 20:37 19.68647 55.99364 31918 ft 495 kts 182°
2026-04-16 20:38 19.61756 55.99530 31911 ft 496 kts 182°
2026-04-16 20:38 19.54858 55.99645 31905 ft 493 kts 187°
2026-04-16 20:39 19.48253 55.98160 31922 ft 483 kts 205°
2026-04-16 20:39 19.42356 55.94921 31927 ft 476 kts 214°
2026-04-16 20:40 19.36634 55.91348 31918 ft 478 kts 214°
2026-04-16 20:40 19.30868 55.87816 31917 ft 480 kts 213°
2026-04-16 20:41 19.25071 55.84302 31916 ft 480 kts 213°
2026-04-16 20:41 19.19264 55.80789 31920 ft 481 kts 213°
2026-04-16 20:42 19.13459 55.77276 31908 ft 481 kts 213°
2026-04-16 20:42 19.07658 55.73766 31918 ft 480 kts 213°
2026-04-16 20:43 19.01895 55.70288 31927 ft 480 kts 213°
2026-04-16 20:43 18.96083 55.66794 31926 ft 481 kts 213°
2026-04-16 20:44 18.90272 55.63303 31932 ft 481 kts 213°
2026-04-16 20:44 18.84459 55.59811 31930 ft 481 kts 213°
2026-04-16 20:45 18.78647 55.56322 31923 ft 480 kts 213°
2026-04-16 20:45 18.72837 55.52837 31931 ft 481 kts 213°
2026-04-16 20:46 18.67023 55.49352 31930 ft 481 kts 213°
2026-04-16 20:46 18.61209 55.45870 31928 ft 481 kts 213°
2026-04-16 20:47 18.55391 55.42388 31932 ft 481 kts 213°
2026-04-16 20:47 18.49573 55.38909 31932 ft 481 kts 213°
2026-04-16 20:48 18.43752 55.35430 31929 ft 481 kts 213°
2026-04-16 20:48 18.37936 55.31957 31927 ft 481 kts 213°
2026-04-16 20:49 18.32118 55.28486 31934 ft 481 kts 213°
2026-04-16 20:49 18.26298 55.25013 32004 ft 483 kts 213°
2026-04-16 20:50 18.23375 55.23269 32273 ft 483 kts 213°
2026-04-16 20:50 18.20457 55.21529 32643 ft 481 kts 213°
2026-04-16 20:50 18.17552 55.19799 33013 ft 479 kts 213°
2026-04-16 20:50 18.14650 55.18082 33352 ft 479 kts 212°
2026-04-16 20:51 18.11643 55.16557 33660 ft 481 kts 207°
2026-04-16 20:51 18.08556 55.15180 33858 ft 483 kts 207°
2026-04-16 20:51 18.02344 55.12445 33951 ft 484 kts 207°
2026-04-16 20:52 17.96156 55.09700 33936 ft 482 kts 207°
2026-04-16 20:52 17.90003 55.06946 33940 ft 480 kts 207°
2026-04-16 20:53 17.83873 55.04196 33926 ft 479 kts 208°
2026-04-16 20:53 17.77750 55.01452 33947 ft 479 kts 207°
2026-04-16 20:54 17.71607 54.98702 33946 ft 481 kts 208°
2026-04-16 20:54 17.65448 54.95948 33957 ft 482 kts 208°
2026-04-16 20:55 17.59266 54.93185 33953 ft 484 kts 208°
2026-04-16 20:55 17.53108 54.90435 33945 ft 485 kts 208°
2026-04-16 20:56 17.46851 54.87644 33951 ft 486 kts 208°
2026-04-16 20:56 17.40669 54.84889 33968 ft 487 kts 208°
2026-04-16 20:57 17.34437 54.82111 33963 ft 487 kts 208°
2026-04-16 20:57 17.28200 54.79317 33965 ft 486 kts 210°